www.pogodaiklimat.ru

Погода и климат >> Архив погоды >> Ирак >> Рамади


ПОГОДА в Рамади

  • Прогноз погоды в Рамади
  • Монитор погоды в Рамади

АРХИВ ПОГОДЫ в Рамади

Время (UTC), дата Ветер
(напр.,м/с)
 
Видим.   Явления Облачность Т
(С)
Тd
(С)
f
(%)
Тe
(С)
Тes
(С)
Комфортность P
(гПа)
Po
(гПа)
Тmin
(С)
Tmax
(С)
R
(мм)
R24
(мм)
S
(см)
03 11.02 штиль 0 6000 м дымка 3/0
[Ac trans]
+9.4 +8.8 96 +8 +8 1017.2 1011.3
06 11.02 штиль 0 7000 м дымка 9/0
[As op]
+10.2 +8.5 89 +9 +11 1018.6 1012.7 +8.3
09 11.02 СЗ 2 6000 м дымка 10/0
[As op]
+12.0 +10.0 88 +11 +17 1018.8 1013.0
12 11.02 С 2 10 км 8/4 900 м
[Sc As op]
+13.8 +9.5 75 +13 +15 1017.8 1012.0
15 11.02 СЗ 2 10 км 5/3 960 м
[Sc As op]
+12.4 +8.8 79 +12 +12 1018.7 1012.9
18 11.02 С 2 10 км ясно +10.6 +9.4 92 +9 +9 1019.6 1013.7 +14.4
03 12.02 С 3 10 км 3/0
[Ci sp]
+7.4 +5.6 88 +4 +4 1021.6 1015.6
06 12.02 СЗ 3 10 км ясно +9.6 +6.1 79 +7 +11 1022.4 1016.5 +7.0
09 12.02 С 2 10 км ясно +15.2 +8.9 66 +15 +26 опасность
простуды
1022.3 1016.5
12 12.02 СЗ 3 10 км 4/4 900 м
[Cu hum]
+18.4 +8.3 52 +19 +21 1021.3 1015.6
18 12.02 штиль 0 10 км ясно +12.0 +10.8 92 +11 +11 1023.6 1017.7 +19.0
03 13.02 СЗ 2 10 км ясно +7.0 +5.1 88 +5 +5 1024.0 1018.0
06 13.02 С 2 10 км 4/0
[Ci sp]
+9.0 +4.4 73 +7 +11 1025.9 1020.0 +6.6
09 13.02 СЗ 2 10 км 4/0
[Ci sp]
+17.8 +8.7 55 +18 +28 1025.2 1019.4
15 13.02 ЮВ 2 10 км 3/0
[Ac trans]
+16.9 +11.5 70 +17 +17 1022.0 1016.2
18 13.02 СВ 1 10 км ясно +12.4 +9.2 81 +12 +12 1022.8 1016.9 +20.0
03 14.02 В 2 10 км 6/6 900 м
[Sc]
+10.6 +7.0 78 +9 +9 1020.1 1014.2
06 14.02 В 3 10 км 6/6 900 м
[Sc]
+13.9 +5.7 58 +13 +14 1019.7 1013.9 +9.2
09 14.02 ЮВ 4 10 км 5/0
[Ac und]
+17.4 +6.7 49 +17 +22 1016.8 1011.1
12 14.02 В 5 10 км 5/5 900 м
[Sc]
+18.6 +8.1 50 +19 +20 1013.0 1007.3
15 14.02 ЮВ 4 10 км 6/6 900 м
[Sc]
+16.9 +8.7 58 +16 +16 1012.3 1006.6
18 14.02 ЮВ 6 10 км 3/0
[Ac trans]
+14.2 +10.3 77 +12 +12 1012.9 1007.1 +19.4
03 15.02 В 2 8000 м дымка 9/9 900 м
[Sc]
+11.4 +9.4 88 +10 +10 1013.2 1007.4
06 15.02 В 1 10 км 9/9 900 м
[Sc]
+12.5 +9.7 83 +13 +13 1014.2 1008.4 +11.0
09 15.02 Ю 2 10 км 10/10 900 м
[Sc]
+16.0 +11.3 74 +16 +16 1013.2 1007.5
12 15.02 С 2 8000 м слаб. морось 10/10 900 м
[Sc]
+14.0 +11.1 83 +13 +13 1012.3 1006.5
15 15.02 С 5 10 км {морось} 9/9 900 м
[Sc]
+10.2 +6.3 77 +7 +7 1013.8 1007.9
18 15.02 С 2 10 км {морось} 5/5 900 м
[Sc]
+8.8 +6.1 83 +7 +7 1013.9 1008.0 +16.5
06 16.02 штиль 0 10 км ясно +6.4 +1.3 70 +6 +12 1021.3 1015.3 +3.8
09 16.02 штиль 0 10 км ясно +15.0 +6.3 56 +15 +30 опасность
простуды
1021.3 1015.5
15 16.02 В 2 10 км 4/4 900 м
[Sc]
+15.8 +9.4 66 +16 +16 1019.2 1013.4
18 16.02 штиль 0 10 км 5/5 900 м
[Sc]
+12.6 +8.8 78 +12 +12 1020.3 1014.5 +18.6
06 17.02 С 2 10 км ясно +12.2 +8.1 76 +11 +16 1020.9 1015.0 +9.6
09 17.02 СЗ 3 10 км ясно +16.4 +9.0 62 +16 +25 1021.5 1015.7
12 17.02 СЗ 5 10 км 5/5 900 м
[Cu med, cong]
+14.7 +8.6 67 +13 +15 1019.5 1013.7
15 17.02 С 2 10 км 4/4 900 м
[Cu med, cong]
+15.2 +10.8 75 +15 +15 1019.5 1013.7

 

Местоположение метеостанции Рамади (Ирак): широта 33.45 долгота 43.32 высота над уровнем моря 48 м.

В архиве по умолчанию представлена погода в Рамади за последнюю неделю. Архивные данные за месяц целиком и за предыдущие месяцы, начиная с января 2011 года, Вы можете получить, выбрав интересующий диапазон дат из раскрывающегося списка и нажав кнопку "Ввод!".


*Определитесь, кто Вы:
робот инопланетянин человек

Внимание! Время в таблицах - всемирное. Для получения местного времени необходимо прибавить поправку, которая равна 3 ч.

Смотрите также архив погоды в соседних городах и на ближайших метеорологических станциях:

Погода в Хите (Ирак) (45 км)
Погода в Багдаде (Ирак) (88 км)
Погода в Хадите (Ирак) (112 км)
Погода в Кербеле (Ирак) (113 км)
Погода в Эль-Халисе (Ирак) (120 км)
Погода в Тикрите (Ирак) (129 км)
Погода в Айн Аль-Тамаре (Ирак) (130 км)
Погода в Хелле (Ирак) (153 км)
Погода в Бейджи (Ирак) (165 км)
Погода в Ане (Ирак) (170 км)

Пояснения к столбцам:

Ветер - указаны скорость ветра в м/с - средняя за 10 мин, порывы в срок и между сроками (в фигурных скобках) и направление, откуда дует ветер: С - северный, СВ - северо-восточный, В - восточный, ЮВ - юго-восточный, Ю - южный, ЮЗ - юго-западный, З - западный, СЗ - северо-западный.
Видимость - горизонтальная дальность видимости в метрах или километрах. При видимости от 1 до 10 км при отсутствии осадков обычно наблюдается дымка, при ухудшении видимости до 1 км и менее - туман. В сухую погоду видимость может ухудшаться дымом, пылью или мглою.
Явления - указаны атмосферные явления, наблюдавшиеся в срок или в последний час перед сроком; фигурными скобками обозначены явления, наблюдавшиеся между сроками (за 1-3 часа до срока); квадратными скобками обозначены град или гололедные отложения с указанием их диаметра в мм.
Облачность - указаны через наклонную черту общая и нижняя облачность в баллах и высота нижней границы облаков в метрах; квадратными скобками обозначены формы облаков: Ci - перистые, Cs - перисто-слоистые, Cc - перисто-кучевые, Ac - высококучевые, As - высокослоистые, Sc - слоисто-кучевые, Ns - слоисто-дождевые, Cu - кучевые, Cb - кучево-дождевые. Подробнее классификацию облаков см. в Атласе облаков (PDF).
T - Температура воздуха - температура, измеренная на высоте 2 м над землей.
Td - Температура точки росы - температура, при понижении до которой содержащийся в воздухе водяной пар достигнет насыщения.
f - Относительная влажность воздуха - влажноcть воздуха, измеренная на высоте 2 м над землей.
Te - Эффективная температура - температура, которую ощущает одетый по сезону человек в тени. Характеристика душности погоды. При расчете учитывается влияние влажности воздуха и скорости ветра на теплоощущения человека.
Tes - Эффективная температура на солнце - температура, которую ощущает человек, с поправкой на солнечный нагрев. Характеристика знойности погоды. Зависит от высоты солнца над горизонтом, облачности и скорости ветра. Ночью, в пасмурную погоду, а также при ветре 12 м/с и более поправка равна нулю.
P - Атмосферное давление - приведенное к уровню моря атмосферное давление.
Po - Атмосферное давление - измеренное на уровне метеостанции атмосферное давление.
Tmin - Минимальная температура - минимум температуры воздуха на высоте 2 м над землей.
Tmax - Максимальная температура - максимум температуры воздуха на высоте 2 м над землей.
R - Количество осадков - Количество выпавших осадков за период времени, мм. При наведении курсора мыши на число - период времени, за который выпало указанное количество осадков.
R24 - Количество осадков - Количество выпавших осадков за 24 часа, мм.
S - Снежный покров - Высота снежного покрова, см. При наведении курсора мыши на число - состояние снежного покрова и степень покрытия местности в баллах.